Voltar ao catálogo

CZ-4C R/B

AtivoLEO
NORAD 47537·ROCKET BODY·🇨🇳 China

Lançado Jan 29, 2021 de Jiuquan Satellite Launch Center

Loading…

Próximas Passagens (próximas 24 horas)

TLE

AtualizadoSource: Space-Track

Época: Sep 14, 2026, 21:14 UTC

1 47537U 21007F   26257.88491602 -.00000024  00000-0  60027-4 0  9992
2 47537  63.4463  68.2229 0311268   1.3672 358.8146 13.68051615281061

Acompanhe CZ-4C R/B em tempo real com AllMySat

Download on the App Store